Overview Statistics Trail Chart Weather Telemetry Raw packets
 

This is the latest recevied weather packets stored in our database for station/object TONGUE. If no packets are shown the sender has not sent any weather packets the latest 10 day(s).

<< 16 17 18 19 20 21 22 >>
Time Temp. Humidity Pressure Rain* Wind** Luminosity Snow
1788229203 17.22° C 91% 0 hPa - - - -
1788228604 17.22° C 89% 0 hPa - - - -
1788228009 17.78° C 87% 0 hPa - - - -
1788227403 17.78° C 84% 0 hPa - - - -
1788226803 18.33° C 83% 0 hPa - - - -
1788226203 18.89° C 81% 0 hPa - - - -
1788225603 18.89° C 78% 0 hPa - - - -
1788225003 19.44° C 76% 0 hPa - - - -
1788224404 20° C 74% 0 hPa - - - -
1788223803 21.11° C 69% 0 hPa - - - -
1788223202 21.11° C 69% 0 hPa - - - -
1788222603 21.67° C 66% 0 hPa - - - -
1788222003 21.67° C 67% 0 hPa - - - -
1788221403 21.67° C 67% 0 hPa - - - -
1788220803 22.22° C 65% 0 hPa - - - -
1788220203 21.67° C 66% 0 hPa - - - -
1788219603 21.67° C 67% 0 hPa - - - -
1788219002 22.22° C 65% 0 hPa - - - -
1788218403 22.78° C 63% 0 hPa - - - -
1788217803 22.78° C 63% 0 hPa - - - -
1788217203 23.89° C 59% 0 hPa - - - -
1788216603 22.78° C 64% 0 hPa - - - -
1788216021 22.78° C 64% 0 hPa - - - -
1788215408 24.44° C 58% 0 hPa - - - -
1788214802 23.89° C 58% 0 hPa - - - -

* Rain since midnight (hover to see other rain measurements)
** Current wind speed in m/s (hover to see current wind gust speed)